FENGYUN 1C DEB, 30044

Orbit data source: Space-Track

FENGYUN 1C DEB, 30044 is space debris in SSO originally from a launch on Mon, 10 May 1999 UTC launched from the Taiyaun Space Center, China (TSC). Fengyun 1C debris stems from the Chinese weather satellite Fengyun-1C, which was intentionally destroyed by a Chinese anti-satellite missile in 2007. This event dramatically increased the amount of space debris, with thousands of trackable fragments posing hazards to satellites and human spaceflight. The Fengyun 1C debris cloud has become a focal point in discussions about space sustainability and the need for international regulations to prevent the creation of new debris.

Loading next visibility...
Identifier
30044, 1999-025NV
Orbit
SSO
Country
Flag of CNCN / PRC
Related business
Manufacturer
Unknown
Mission
Spacecraft
Bus & Motor
Unknown
Mass
Unknown
Launch date (UTC)
1999-05-10 (27 years ago)
Launch vehicle
Unknown
Launch site
Taiyaun Space Center, China (TSC)
Object type
Payload
Rocket body
Debris
Shape & HBR
Unknown shape, 0.1 m
Radar Cross Section
Small (<0.1 m²)

Expand to show TLE details & history
Last TLE update: 12 hours ago

TLE from 12 hours ago
0 FENGYUN 1C DEB
1 30044U 99025NV  26209.03809623  .00006008  00000-0  13709-2 0  9992
2 30044  98.2096 129.6084 0074349 186.2199 173.8083 14.54439883 13384
Epoch: 2026-07-28T00:54Z
TLE epoch observation values (Epoch: 2026-07-28T00:54:51.514Z)
Latitude
0.00005°
Longitude
170.18069°
Altitude
766.578 km
Speed
7.443 km/s
True Right ascension
08h 38m 26s
True Declination
0° 00' 00"
Sunlit
Object was in daylight at epoch
Visualization orbit readout
Latitude
Unknown
Longitude
Unknown
Altitude
Unknown
Speed
Unknown
Apparent Right ascension
Unknown
Apparent Declination
Unknown
Sunlit
N/A
Visualization observer readout
Local Sidereal Time
02:14:42
Azimuth
Unknown
Elevation
Unknown
Doppler factor
Unknown
Orbital elements
Apogee altitude
760.96 km
Perigee altitude
655.586 km
Semi-major axis
7,086.41 km
Eccentricity
0.00743
Inclination
98.2096°
RAAN
129.6084°
Arg. of periapsis
186.2199°
True anomaly
173.89935°
Mean anomaly
173.8083°
Eccentric anomaly
173.85391°
Mean motion
3.63834 °/min
Orbital period
98.95 mins
BSTAR
0.0013709
Loading maneuver chart data...
Computing Atmospheric mass density...

Documentation

Showing up to 5 results
|